Location: Podia
(1.5569°N, 32.3469°E)
Time: 12:34:13
(UTC+00:00)

Vanguard 2 Rocket - All Passes

Search period start: 26 September 2020 00:00
Search period end: 06 October 2020 00:00
Orbit: 554 x 3326 km, 32.9° (Epoch: 25 September)

Date Brightness Start Highest point End Pass type
(mag) Time Alt. Az. Time Alt. Az. Time Alt. Az.
26 Sep - 00:38:58 10° WNW 00:53:39 32° NNW 01:10:35 10° NE visible
26 Sep - 03:04:33 10° NW 03:17:32 20° N 03:29:06 10° NE visible
26 Sep - 05:28:08 10° NNW 05:40:36 23° NNE 05:49:35 10° ENE daylight
26 Sep - 07:46:28 10° NW 07:59:08 48° NNE 08:06:20 10° E daylight
26 Sep - 10:05:01 10° WNW 10:13:18 40° SW 10:18:23 10° SSE daylight
26 Sep - 19:09:27 10° SSW 19:16:39 30° SE 19:27:57 10° E visible
26 Sep - 21:20:44 10° WSW 21:31:35 84° NW 21:50:06 10° NE visible
26 Sep - 23:36:46 10° W 23:50:30 39° NNW 00:08:37 10° NE visible
27 Sep - 01:59:47 10° NW 02:13:30 22° N 02:27:00 10° NE visible
27 Sep - 04:24:47 10° NW 04:37:44 21° N 04:47:53 10° NE daylight
27 Sep - 06:44:15 10° NW 06:58:03 38° NNE 07:06:29 10° E daylight
27 Sep - 09:02:34 10° WNW 09:13:47 73° SW 09:19:58 10° SE daylight
27 Sep - 18:12:15 10° S 18:16:44 16° SE 18:22:37 10° ESE visible
27 Sep - 20:21:29 10° SW 20:30:40 72° SE 20:47:03 10° ENE night (unlit)
27 Sep - 22:35:36 10° W 22:47:56 48° NNW 23:06:23 10° NE visible
28 Sep - 00:55:51 10° WNW 01:09:33 25° NNW 01:24:45 10° NE visible
28 Sep - 03:20:56 10° NW 03:34:11 20° N 03:45:34 10° NE visible
28 Sep - 05:41:47 10° NW 05:56:17 31° NNE 06:05:57 10° ENE daylight
28 Sep - 08:00:10 10° NW 08:13:43 76° NNE 08:21:03 10° ESE daylight
28 Sep - 10:20:46 10° W 10:27:04 22° SW 10:31:30 10° S daylight
28 Sep - 19:22:47 10° SSW 19:30:24 47° SE 19:43:37 10° ENE night (unlit)
28 Sep - 21:35:17 10° WSW 21:46:00 61° NNW 22:03:55 10° NE visible
28 Sep - 23:52:59 10° WNW 00:06:02 30° NNW 00:22:24 10° NE visible
29 Sep - 02:16:51 10° NW 02:30:07 21° N 02:42:46 10° NE visible
29 Sep - 04:39:03 10° NW 04:53:48 27° NNE 05:04:40 10° ENE daylight
29 Sep - 06:57:44 10° NW 07:12:59 56° NNE 07:21:39 10° ESE daylight
29 Sep - 09:17:22 10° WNW 09:27:39 42° SW 09:33:43 10° SSE daylight
29 Sep - 18:24:43 10° SSW 18:30:37 27° SE 18:39:42 10° E visible
29 Sep - 20:35:38 10° WSW 20:44:46 80° NW 21:01:14 10° NE night (unlit)
29 Sep - 22:51:13 10° W 23:03:06 35° NNW 23:19:58 10° NE visible
30 Sep - 01:13:00 10° NW 01:25:57 22° N 01:39:45 10° NE visible
30 Sep - 03:36:03 10° NW 03:50:36 24° NNE 04:02:32 10° ENE daylight
30 Sep - 05:55:16 10° NW 06:11:33 44° NNE 06:21:38 10° E daylight
30 Sep - 08:14:21 10° WNW 08:27:52 71° SW 08:35:14 10° SE daylight
30 Sep - 10:38:42 10° WSW 10:40:58 11° SW 10:42:59 10° SSW daylight
30 Sep - 17:28:03 10° SSE 17:31:00 13° SE 17:34:35 10° ESE visible
30 Sep - 19:36:33 10° SW 19:44:14 74° SE 19:58:23 10° ENE night (unlit)
30 Sep - 21:50:22 10° W 22:00:50 43° NNW 22:17:29 10° NE visible
01 Oct - 00:09:48 10° WNW 00:22:04 24° NNW 00:36:41 10° NE visible
01 Oct - 02:32:54 10° NW 02:46:47 22° N 02:59:32 10° NE visible
01 Oct - 04:52:46 10° NW 05:09:25 36° NNE 05:20:54 10° E daylight
01 Oct - 07:11:31 10° NW 07:27:28 82° NE 07:36:14 10° ESE daylight
01 Oct - 09:33:07 10° W 09:41:24 25° SW 09:46:55 10° S daylight
01 Oct - 18:38:00 10° SSW 18:44:21 46° SE 18:55:20 10° ENE visible
01 Oct - 20:50:15 10° WSW 20:59:17 55° NNW 21:14:59 10° NE visible
01 Oct - 23:07:30 10° WNW 23:18:44 27° NNW 23:33:44 10° NE visible
02 Oct - 01:29:44 10° NW 01:42:37 21° N 01:55:51 10° NE visible
02 Oct - 03:50:16 10° NW 04:06:35 30° NNE 04:19:17 10° ENE daylight
02 Oct - 06:08:50 10° NW 06:26:22 62° NNE 06:36:40 10° ESE daylight
02 Oct - 08:29:11 10° WNW 08:41:42 45° SW 08:48:58 10° SSE daylight
02 Oct - 17:40:05 10° S 17:44:52 24° SE 17:51:56 10° E visible
02 Oct - 19:50:46 10° WSW 19:58:24 74° NNW 20:12:30 10° NE night (unlit)
02 Oct - 22:06:05 10° WNW 22:16:07 31° NNW 22:30:59 10° NE visible
03 Oct - 00:26:48 10° NW 00:38:31 21° N 00:51:53 10° NE visible
03 Oct - 02:47:49 10° NW 03:03:09 26° NNE 03:16:38 10° ENE visible
03 Oct - 05:06:19 10° NW 05:24:34 49° NNE 05:36:28 10° E daylight
03 Oct - 07:25:44 10° WNW 07:41:32 69° SW 07:50:21 10° SE daylight
03 Oct - 09:50:30 10° WSW 09:55:18 14° SW 09:59:07 10° SSW daylight
03 Oct - 16:44:37 10° SE 16:45:28 10° SE 16:46:22 10° SE visible
03 Oct - 18:51:47 10° SW 18:58:14 76° SE 19:10:03 10° ENE visible
03 Oct - 21:05:27 10° W 21:14:13 38° NNW 21:28:28 10° NE visible
03 Oct - 23:24:19 10° NW 23:34:50 21° N 23:48:04 10° NE visible
04 Oct - 01:45:27 10° NW 01:59:14 22° N 02:12:54 10° NE visible
04 Oct - 04:04:01 10° NW 04:22:05 39° NNE 04:35:27 10° E daylight
04 Oct - 06:22:40 10° NW 06:40:45 86° NE 06:51:11 10° ESE daylight
04 Oct - 08:44:58 10° W 08:55:26 28° SW 09:02:12 10° SSE daylight
04 Oct - 17:53:18 10° SSW 17:58:38 44° SE 18:07:31 10° ENE visible
04 Oct - 20:05:30 10° W 20:13:01 48° NNW 20:26:11 10° NE night (unlit)
04 Oct - 22:22:28 10° WNW 22:31:50 23° NNW 22:44:41 10° NNE visible
05 Oct - 00:43:13 10° NW 00:55:09 20° N 01:08:19 10° NE visible
05 Oct - 03:01:57 10° NW 03:19:01 32° NNE 03:33:25 10° E visible
05 Oct - 05:19:56 10° NW 05:39:15 67° NNE 05:51:24 10° ESE daylight
05 Oct - 07:40:37 10° WNW 07:55:21 47° SW 08:04:01 10° SSE daylight
05 Oct - 16:55:29 10° S 16:59:22 21° SE 17:04:42 10° E visible
05 Oct - 19:06:04 10° WSW 19:12:28 66° NNW 19:24:06 10° NE visible
05 Oct - 21:21:20 10° WNW 21:29:34 26° NNW 21:41:51 10° NNE visible
